This is the latest recevied weather packets stored in our database for station/object K9UO. If no packets are shown the sender has not sent any weather packets the latest 10 day(s).
| Time | Temp. | Humidity | Pressure | Rain* | Wind** | Luminosity | Snow |
|---|---|---|---|---|---|---|---|
| 1777824018 | 13.33° C | 51% | 1017.2 hPa | 0 mm | - | - | - |
| 1777823128 | 13.33° C | 50% | 1017.4 hPa | 0 mm | - | - | - |
| 1777822214 | 12.78° C | 50% | 1017.5 hPa | 0 mm | - | - | - |
| 1777821311 | 12.22° C | 51% | 1017.7 hPa | 0 mm | - | - | - |
| 1777820408 | 11.67° C | 53% | 1017.6 hPa | 0 mm | - | - | - |
| 1777819515 | 11.67° C | 51% | 1017.8 hPa | 0 mm | - | - | - |
| 1777818605 | 11.11° C | 52% | 1017.8 hPa | 0 mm | - | - | - |
| 1777817702 | 11.11° C | 51% | 1017.9 hPa | 0 mm | - | - | - |
| 1777816860 | 10.56° C | 53% | 1017.9 hPa | 0 mm | - | - | - |
| 1777815957 | 10° C | 55% | 1017.9 hPa | 0 mm | - | - | - |
| 1777815051 | 9.44° C | 54% | 1018.1 hPa | 0 mm | - | - | - |
| 1777814152 | 8.33° C | 56% | 1018.1 hPa | 0 mm | - | - | - |
| 1777813243 | 7.78° C | 56% | 1018.1 hPa | 0 mm | - | - | - |
| 1777812340 | 7.22° C | 56% | 1018.2 hPa | 0 mm | - | - | - |
| 1777811437 | 6.67° C | 56% | 1018.3 hPa | 0 mm | - | - | - |
| 1777810537 | 6.67° C | 56% | 1018.3 hPa | 0 mm | - | - | - |
| 1777809633 | 6.11° C | 56% | 1018.2 hPa | 0 mm | - | - | - |
| 1777808728 | 5.56° C | 56% | 1018.1 hPa | 0 mm | - | - | - |
| 1777807826 | 5° C | 56% | 1017.9 hPa | 0 mm | - | - | - |
| 1777806934 | 4.44° C | 55% | 1017.8 hPa | 0 mm | - | - | - |
| 1777806020 | 4.44° C | 55% | 1017.7 hPa | 0 mm | - | - | - |
| 1777805119 | 4.44° C | 55% | 1017.6 hPa | 0 mm | - | - | - |
| 1777804218 | 4.44° C | 55% | 1017.4 hPa | 0 mm | - | - | - |
| 1777803318 | 4.44° C | 55% | 1017.4 hPa | 0 mm | - | - | - |
| 1777802414 | 4.44° C | 55% | 1017.3 hPa | 0 mm | - | - | - |
* Rain latest hour (hover to see other rain measurements)
** Current wind speed in m/s (hover to see current wind gust speed)